Weather History for Albemarle, NC

Change the Weather History Date:

Thursday, January 9, 2014

  Actual Average (KHBI) Record (KHBI)
Temperature  
Mean Temperature 36 °F -  
Max Temperature 52 °F 46 °F 73 °F (2003)
Min Temperature 20 °F 28 °F 4 °F (1970)
Degree Days  
Heating Degree Days 29    
Moisture  
Dew Point 23 °F    
Average Humidity 63    
Maximum Humidity 93    
Minimum Humidity 20    
Precipitation  
Precipitation 0.00 in - - ()
Sea Level Pressure  
Sea Level Pressure 30.54 in    
Wind  
Wind Speed 1 mph (SE)    
Max Wind Speed 7 mph    
Max Gust Speed -    
Visibility 10 miles    
Events      
Averages and records for this station are not official NWS values.
T = Trace of Precipitation, MM = Missing Value Source: NWS Daily Summary

Daily Weather History Graph

Daily Weather History Graph

Search for Another Location

Airport:

Trip Planner

Search our weather history database for the weather conditions in past years. The results will help you decide how hot, cold, wet, or windy it might be!

Date:

Astronomy

Jan. 09, 2014 Rise Set
Actual Time 7:30 AM EST 5:25 PM EST
Civil Twilight 7:02 AM EST 5:53 PM EST
Nautical Twilight 6:30 AM EST 6:25 PM EST
Astronomical Twilight 5:59 AM EST 6:55 PM EST
Moon 12:47 PM EST (1/9) 1:41 AM EST (1/9)
Length of Visible Light 10h 51m
Length of Day
9h 55m
Waxing Gibbous, 66% of the Moon is Illuminated
Jan 9
Waxing Gibbous
Jan 15
Full
Jan 24
Last Quarter
Jan 30
New
Feb 6
First Quarter

Hourly Weather History & Observations

Time (EST) Temp. Windchill Dew Point Humidity Pressure Visibility Wind Dir Wind Speed Gust Speed Precip Events Conditions
12:15 AM 22.5 °F - 18.3 °F 84% 30.55 in 10.0 mi Calm Calm - N/A   Clear
12:35 AM 21.9 °F - 19.2 °F 89% 30.54 in 10.0 mi Calm Calm - N/A   Clear
12:55 AM 23.0 °F - 19.4 °F 86% 30.54 in 10.0 mi Calm Calm - N/A   Clear
1:15 AM 23.0 °F - 19.0 °F 85% 30.54 in 10.0 mi Calm Calm - N/A   Clear
1:35 AM 23.0 °F - 19.0 °F 85% 30.54 in 10.0 mi Calm Calm - N/A   Clear
1:55 AM 23.4 °F - 18.5 °F 82% 30.54 in 10.0 mi Calm Calm - N/A   Clear
2:15 AM 23.4 °F - 19.0 °F 84% 30.54 in 10.0 mi Calm Calm - N/A   Clear
2:35 AM 23.0 °F - 18.9 °F 84% 30.54 in 10.0 mi Calm Calm - N/A   Clear
2:55 AM 22.8 °F - 19.2 °F 86% 30.55 in 10.0 mi Calm Calm - N/A   Clear
3:15 AM 21.9 °F - 19.0 °F 89% 30.55 in 10.0 mi Calm Calm - N/A   Clear
3:35 AM 21.6 °F - 18.7 °F 89% 30.54 in 10.0 mi Calm Calm - N/A   Clear
3:55 AM 21.7 °F - 18.3 °F 87% 30.53 in 10.0 mi Calm Calm - N/A   Clear
4:15 AM 22.1 °F - 16.3 °F 79% 30.54 in 10.0 mi Calm Calm - N/A   Clear
4:35 AM 21.2 °F - 18.1 °F 88% 30.54 in 10.0 mi Calm Calm - N/A   Clear
4:55 AM 21.6 °F 15.3 °F 18.5 °F 88% 30.53 in 10.0 mi North 4.6 mph - N/A   Clear
5:15 AM 21.7 °F - 17.6 °F 84% 30.54 in 10.0 mi Calm Calm - N/A   Clear
5:35 AM 22.1 °F - 18.1 °F 85% 30.54 in 10.0 mi Calm Calm - N/A   Clear
5:55 AM 22.1 °F - 17.8 °F 83% 30.54 in 10.0 mi Calm Calm - N/A   Clear
6:15 AM 23.0 °F - 19.4 °F 86% 30.54 in 10.0 mi Calm Calm - N/A   Clear
6:35 AM 22.6 °F - 19.8 °F 89% 30.55 in 10.0 mi Calm Calm - N/A   Clear
6:55 AM 22.1 °F - 20.1 °F 92% 30.55 in 10.0 mi Calm Calm - N/A   Clear
7:15 AM 22.1 °F - 19.4 °F 89% 30.55 in 10.0 mi Calm Calm - N/A   Clear
7:35 AM 20.1 °F - 18.5 °F 93% 30.55 in 10.0 mi Calm Calm - N/A   Clear
7:55 AM 20.5 °F - 18.9 °F 93% 30.57 in 10.0 mi Calm Calm - N/A   Clear
8:15 AM 23.7 °F - 21.7 °F 92% 30.58 in 10.0 mi Calm Calm - N/A   Clear
8:35 AM 26.1 °F - 23.2 °F 89% 30.58 in 10.0 mi Calm Calm - N/A   Clear
8:55 AM 28.9 °F - 26.4 °F 90% 30.59 in 10.0 mi Calm Calm - N/A   Clear
9:15 AM 31.8 °F - 23.2 °F 70% 30.59 in 10.0 mi Calm Calm - N/A   Clear
9:35 AM 34.5 °F - 18.5 °F 52% 30.59 in 10.0 mi Calm Calm - N/A   Clear
9:55 AM 37.4 °F - 19.4 °F 48% 30.60 in 10.0 mi Calm Calm - N/A   Clear
10:15 AM 40.1 °F - 18.5 °F 42% 30.60 in 10.0 mi Calm Calm - N/A   Clear
10:35 AM 41.5 °F - 14.5 °F 33% 30.60 in 10.0 mi Calm Calm - N/A   Clear
10:55 AM 43.0 °F - 10.9 °F 27% 30.59 in 10.0 mi Calm Calm - N/A   Clear
11:15 AM 45.0 °F - 9.9 °F 24% 30.59 in 10.0 mi Calm Calm - N/A   Clear
11:35 AM 46.9 °F - 8.8 °F 21% 30.58 in 10.0 mi ESE 3.5 mph - N/A   Clear
11:55 AM 47.7 °F - 9.3 °F 21% 30.57 in 10.0 mi Calm Calm - N/A   Clear
12:15 PM 48.9 °F - 9.5 °F 20% 30.55 in 10.0 mi Calm Calm - N/A   Clear
12:35 PM 49.6 °F - 13.1 °F 23% 30.54 in 10.0 mi South 3.5 mph - N/A   Clear
12:55 PM 50.5 °F - 16.0 °F 25% 30.53 in 10.0 mi Calm Calm - N/A   Clear
1:15 PM 49.5 °F - 16.2 °F 27% 30.52 in 10.0 mi Calm Calm - N/A   Clear
1:35 PM 50.7 °F - 16.9 °F 26% 30.50 in 10.0 mi Calm Calm - N/A   Clear
1:55 PM 51.6 °F - 21.2 °F 30% 30.50 in 10.0 mi SSE 3.5 mph - N/A   Clear
2:15 PM 51.1 °F - 25.2 °F 36% 30.50 in 10.0 mi South 6.9 mph - N/A   Clear
2:35 PM 51.4 °F - 25.3 °F 36% 30.50 in 10.0 mi South 4.6 mph - N/A   Clear
2:55 PM 52.0 °F - 25.3 °F 36% 30.50 in 10.0 mi Calm Calm - N/A   Clear
3:35 PM 52.5 °F - 25.0 °F 34% 30.50 in 10.0 mi ESE 4.6 mph - N/A   Scattered Clouds
3:55 PM 52.5 °F - 25.7 °F 35% 30.50 in 10.0 mi SE 3.5 mph - N/A   Clear
4:15 PM 52.7 °F - 26.6 °F 36% 30.50 in 10.0 mi SE 4.6 mph - N/A   Scattered Clouds
4:35 PM 52.2 °F - 27.1 °F 38% 30.50 in 10.0 mi SSE 4.6 mph - N/A   Scattered Clouds
4:55 PM 50.7 °F - 27.0 °F 40% 30.51 in 10.0 mi Calm Calm - N/A   Mostly Cloudy
5:15 PM 49.1 °F - 27.9 °F 44% 30.51 in 10.0 mi Calm Calm - N/A   Overcast
6:15 PM 45.9 °F - 31.1 °F 56% 30.50 in 10.0 mi Calm Calm - N/A   Overcast
6:35 PM 45.5 °F - 32.0 °F 59% 30.52 in 10.0 mi Calm Calm - N/A   Overcast
6:55 PM 44.1 °F - 32.0 °F 63% 30.52 in 10.0 mi Calm Calm - N/A   Overcast
7:15 PM 43.5 °F - 32.0 °F 64% 30.51 in 10.0 mi Calm Calm - N/A   Overcast
7:35 PM 43.7 °F - 32.4 °F 64% 30.52 in 10.0 mi Calm Calm - N/A   Overcast
7:55 PM 43.7 °F - 32.5 °F 65% 30.52 in 10.0 mi Calm Calm - N/A   Overcast
8:15 PM 42.8 °F - 32.7 °F 68% 30.53 in 10.0 mi Calm Calm - N/A   Overcast
8:35 PM 43.7 °F - 33.3 °F 67% 30.54 in 10.0 mi Calm Calm - N/A   Overcast
8:55 PM 42.8 °F - 33.1 °F 69% 30.53 in 10.0 mi Calm Calm - N/A   Overcast
9:15 PM 42.8 °F - 32.5 °F 67% 30.53 in 10.0 mi Calm Calm - N/A   Overcast
9:35 PM 44.6 °F - 32.4 °F 62% 30.53 in 10.0 mi Calm Calm - N/A   Overcast
9:55 PM 43.0 °F - 34.5 °F 72% 30.52 in 10.0 mi Calm Calm - N/A   Overcast
10:15 PM 44.1 °F - 33.1 °F 65% 30.52 in 10.0 mi Calm Calm - N/A   Overcast
10:35 PM 44.8 °F - 32.7 °F 63% 30.52 in 10.0 mi Calm Calm - N/A   Overcast
10:55 PM 45.0 °F - 32.5 °F 62% 30.51 in 10.0 mi Calm Calm - N/A   Overcast
11:15 PM 44.6 °F 43.1 °F 33.4 °F 65% 30.50 in 10.0 mi NNE 3.5 mph - N/A   Overcast
11:35 PM 44.4 °F 42.9 °F 33.3 °F 65% 30.50 in 10.0 mi NNE 3.5 mph - N/A   Overcast
11:55 PM 45.0 °F 43.5 °F 32.7 °F 62% 30.49 in 10.0 mi NNE 3.5 mph - N/A   Overcast